Location: Unspecified
(48.2082°N, 0.0000°E)
Time: 19:09:22
(UTC+00:00)

Transit 4A - Pass Details

Date: 17 June 2019
Orbit: 864 x 981 km, 66.8° (Epoch: 25 August)

Event Time Altitude Azimuth Distance (km) Brightness Sun altitude
Rises 09:59:13 0° 222° (SW) 3,608 10.9 55.4°
Reaches altitude 10° 10:01:45 10° 225° (SW) 2,681 10.4 55.8°
Maximum altitude 10:08:00 68° 309° (NW) 1,047 8.8 56.6°
Drops below altitude 10° 10:14:25 10° 32° (NNE) 2,741 10.4 57.4°
Sets 10:17:02 0° 35° (NE) 3,695 11.0 57.8°
